This is the latest recevied weather packets stored in our database for station/object N1IJV-10. If no packets are shown the sender has not sent any weather packets the latest 10 day(s).
| Time | Temp. | Humidity | Pressure | Rain* | Wind** | Luminosity | Snow |
|---|---|---|---|---|---|---|---|
| 1777918093 | 25.56° C | 42% | 999.6 hPa | 0 mm | - | 757 W/m² | - |
| 1777917791 | 25° C | 39% | 999.7 hPa | 0 mm | - | 740 W/m² | - |
| 1777917489 | 25° C | 39% | 999.9 hPa | 0 mm | - | 713 W/m² | - |
| 1777917185 | 25° C | 38% | 999.8 hPa | 0 mm | - | 709 W/m² | - |
| 1777916884 | 25° C | 41% | 1000 hPa | 0 mm | - | 695 W/m² | - |
| 1777916581 | 25° C | 40% | 999.8 hPa | 0 mm | - | 717 W/m² | - |
| 1777916277 | 25° C | 38% | 1000 hPa | 0 mm | - | 698 W/m² | - |
| 1777915974 | 25° C | 41% | 1000.1 hPa | 0 mm | - | 681 W/m² | - |
| 1777915671 | 25° C | 38% | 1000.4 hPa | 0 mm | - | 707 W/m² | - |
| 1777915368 | 25° C | 41% | 1000.2 hPa | 0 mm | - | 746 W/m² | - |
| 1777915064 | 24.44° C | 41% | 1000.2 hPa | 0 mm | - | 730 W/m² | - |
| 1777914761 | 24.44° C | 41% | 1000.3 hPa | 0 mm | - | 724 W/m² | - |
| 1777914458 | 23.89° C | 42% | 1000.4 hPa | 0 mm | - | 714 W/m² | - |
| 1777914155 | 23.89° C | 42% | 1000.4 hPa | 0 mm | - | 682 W/m² | - |
| 1777913851 | 23.89° C | 42% | 1000.6 hPa | 0 mm | - | 662 W/m² | - |
| 1777913547 | 23.89° C | 43% | 1000.6 hPa | 0 mm | - | 704 W/m² | - |
| 1777913244 | 23.89° C | 41% | 1000.6 hPa | 0 mm | - | 715 W/m² | - |
| 1777912942 | 23.89° C | 45% | 1000.7 hPa | 0 mm | - | 724 W/m² | - |
| 1777912637 | 23.33° C | 45% | 1000.5 hPa | 0 mm | - | 712 W/m² | - |
| 1777912333 | 23.33° C | 45% | 1000.9 hPa | 0 mm | - | 715 W/m² | - |
| 1777912029 | 23.33° C | 44% | 1000.7 hPa | 0 mm | - | 713 W/m² | - |
| 1777911725 | 23.33° C | 45% | 1001.1 hPa | 0 mm | - | 742 W/m² | - |
| 1777911422 | 22.78° C | 46% | 1001.3 hPa | 0 mm | - | 744 W/m² | - |
| 1777911119 | 22.78° C | 44% | 1001.1 hPa | 0 mm | - | 731 W/m² | - |
| 1777910817 | 22.78° C | 47% | 1001.3 hPa | 0 mm | - | 722 W/m² | - |
* Rain latest hour (hover to see other rain measurements)
** Current wind speed in m/s (hover to see current wind gust speed)